When you browse on this site, cookies collect data to enhance your experience and personalize the content and advertising you see.
Visit our Privacy Policy to learn more. By continuing to use the site, you agree to this use of cookies and data.
  • în România
  • Lista ţărilor
  • Pe 7 zile
  • Temperatura apei
  • Hartă satelitară
  • Meteo pe hartă
  • Widget-uri
  • user-avatar
    Intrare

    Meteo pe oră la Georgetown

    Astăzi, 20 Ianuarie, Duminică

    Timp Temperatura Precipitaţii Vânt Presiune Umiditate
    00:00 +26°C° 0.7 mm 3 m/s 760 mmHg 91%
    01:00 +26°C° 0.7 mm 3 m/s 760 mmHg 91%
    02:00 +26°C° 0.7 mm 3 m/s 760 mmHg 92%
    03:00 +25°C° 0.4 mm 3 m/s 760 mmHg 92%
    04:00 +25°C° 0.4 mm 3 m/s 760 mmHg 92%
    05:00 +25°C° 0.4 mm 2 m/s 760 mmHg 92%
    06:00 +26°C° 0.2 mm 3 m/s 760 mmHg 90%
    07:00 +27°C° 0.2 mm 3 m/s 760 mmHg 89%
    08:00 +28°C° 0.2 mm 3 m/s 761 mmHg 87%
    09:00 +29°C° 0.2 mm 3 m/s 761 mmHg 81%
    10:00 +30°C° 0.2 mm 4 m/s 761 mmHg 75%
    11:00 +32°C° 0.2 mm 4 m/s 762 mmHg 69%
    12:00 +32°C° 0 mm 4 m/s 761 mmHg 66%
    13:00 +32°C° 0 mm 4 m/s 760 mmHg 63%
    14:00 +33°C° 0 mm 5 m/s 760 mmHg 61%
    15:00 +32°C° 0 mm 5 m/s 759 mmHg 65%
    16:00 +30°C° 0 mm 4 m/s 759 mmHg 70%
    17:00 +29°C° 0 mm 4 m/s 759 mmHg 74%
    18:00 +28°C° 0 mm 4 m/s 759 mmHg 78%
    19:00 +27°C° 0 mm 4 m/s 759 mmHg 81%
    20:00 +27°C° 0 mm 4 m/s 760 mmHg 84%
    21:00 +27°C° 0.1 mm 4 m/s 760 mmHg 85%
    22:00 +27°C° 0.1 mm 4 m/s 760 mmHg 86%
    23:00 +26°C° 0.1 mm 4 m/s 761 mmHg 87%

    Mâine, 21 Ianuarie, Luni

    Timp Temperatura Precipitaţii Vânt Presiune Umiditate
    00:00 +26°C° 0.2 mm 4 m/s 760 mmHg 88%
    01:00 +26°C° 0.2 mm 4 m/s 760 mmHg 89%
    02:00 +26°C° 0.2 mm 4 m/s 760 mmHg 90%
    03:00 +26°C° 0.1 mm 4 m/s 760 mmHg 91%
    04:00 +26°C° 0.1 mm 4 m/s 760 mmHg 91%
    05:00 +26°C° 0.1 mm 3 m/s 760 mmHg 91%
    06:00 +26°C° 0.2 mm 3 m/s 760 mmHg 89%
    07:00 +27°C° 0.2 mm 3 m/s 761 mmHg 88%
    08:00 +28°C° 0.2 mm 3 m/s 762 mmHg 86%
    09:00 +29°C° 0.4 mm 4 m/s 762 mmHg 80%
    10:00 +30°C° 0.4 mm 4 m/s 762 mmHg 75%
    11:00 +32°C° 0.4 mm 4 m/s 762 mmHg 69%
    12:00 +32°C° 0.1 mm 5 m/s 761 mmHg 65%
    13:00 +32°C° 0.1 mm 5 m/s 761 mmHg 62%
    14:00 +33°C° 0.1 mm 5 m/s 760 mmHg 58%
    15:00 +32°C° 0 mm 5 m/s 760 mmHg 62%
    16:00 +30°C° 0 mm 4 m/s 759 mmHg 66%
    17:00 +29°C° 0 mm 4 m/s 759 mmHg 70%
    18:00 +28°C° 0 mm 4 m/s 759 mmHg 74%
    19:00 +27°C° 0 mm 4 m/s 760 mmHg 78%
    20:00 +26°C° 0 mm 3 m/s 760 mmHg 83%
    21:00 +26°C° 0 mm 3 m/s 761 mmHg 83%
    22:00 +26°C° 0 mm 3 m/s 761 mmHg 84%
    23:00 +26°C° 0 mm 3 m/s 761 mmHg 85%

    Poimâine, 22 Ianuarie, Marţi

    Timp Temperatura Precipitaţii Vânt Presiune Umiditate
    00:00 +26°C° 0 mm 3 m/s 761 mmHg 86%
    01:00 +26°C° 0 mm 3 m/s 761 mmHg 86%
    02:00 +26°C° 0 mm 3 m/s 760 mmHg 87%
    03:00 +26°C° 0 mm 3 m/s 760 mmHg 88%
    04:00 +26°C° 0 mm 3 m/s 760 mmHg 88%
    05:00 +26°C° 0 mm 3 m/s 760 mmHg 88%
    06:00 +27°C° 0 mm 4 m/s 761 mmHg 84%
    07:00 +27°C° 0 mm 4 m/s 761 mmHg 80%
    08:00 +28°C° 0 mm 4 m/s 762 mmHg 76%
    09:00 +29°C° 0.1 mm 4 m/s 762 mmHg 72%
    10:00 +30°C° 0.1 mm 4 m/s 762 mmHg 69%
    11:00 +32°C° 0.1 mm 4 m/s 762 mmHg 65%
    12:00 +32°C° 0.2 mm 4 m/s 761 mmHg 65%
    13:00 +32°C° 0.2 mm 4 m/s 761 mmHg 65%
    14:00 +32°C° 0.2 mm 4 m/s 760 mmHg 64%
    15:00 +30°C° 0.1 mm 4 m/s 759 mmHg 68%
    16:00 +29°C° 0.1 mm 4 m/s 759 mmHg 72%
    17:00 +28°C° 0.1 mm 4 m/s 759 mmHg 76%
    18:00 +28°C° 0.1 mm 4 m/s 759 mmHg 79%
    19:00 +27°C° 0.1 mm 4 m/s 760 mmHg 82%
    20:00 +27°C° 0.1 mm 4 m/s 760 mmHg 85%
    21:00 +26°C° 0.1 mm 4 m/s 761 mmHg 87%
    22:00 +26°C° 0.1 mm 3 m/s 761 mmHg 89%
    23:00 +26°C° 0.1 mm 3 m/s 761 mmHg 90%

    23 Ianuarie, Miercuri

    Timp Temperatura Precipitaţii Vânt Presiune Umiditate
    00:00 +26°C° 0.2 mm 3 m/s 761 mmHg 91%
    01:00 +26°C° 0.2 mm 3 m/s 760 mmHg 91%
    02:00 +26°C° 0.2 mm 3 m/s 760 mmHg 92%
    03:00 +25°C° 0.1 mm 3 m/s 760 mmHg 92%
    04:00 +25°C° 0.1 mm 3 m/s 760 mmHg 92%
    05:00 +25°C° 0.1 mm 3 m/s 760 mmHg 92%
    06:00 +26°C° 0.3 mm 3 m/s 761 mmHg 91%
    07:00 +26°C° 0.3 mm 3 m/s 761 mmHg 89%
    08:00 +27°C° 0.3 mm 4 m/s 762 mmHg 87%
    09:00 +27°C° 0.5 mm 4 m/s 762 mmHg 86%
    10:00 +28°C° 0.5 mm 4 m/s 762 mmHg 84%
    11:00 +28°C° 0.5 mm 4 m/s 762 mmHg 82%
    12:00 +29°C° 0.3 mm 4 m/s 761 mmHg 79%
    13:00 +29°C° 0.3 mm 4 m/s 760 mmHg 76%
    14:00 +29°C° 0.3 mm 4 m/s 760 mmHg 74%
    15:00 +29°C° 0.1 mm 4 m/s 759 mmHg 74%
    16:00 +29°C° 0.1 mm 4 m/s 759 mmHg 73%
    17:00 +28°C° 0.1 mm 4 m/s 759 mmHg 73%
    18:00 +28°C° 0 mm 4 m/s 759 mmHg 77%
    19:00 +27°C° 0 mm 4 m/s 760 mmHg 80%
    20:00 +26°C° 0 mm 4 m/s 760 mmHg 83%
    21:00 +26°C° 0.1 mm 4 m/s 760 mmHg 84%
    22:00 +26°C° 0.1 mm 4 m/s 760 mmHg 84%
    23:00 +26°C° 0.1 mm 4 m/s 761 mmHg 85%

    24 Ianuarie, Joi

    Timp Temperatura Precipitaţii Vânt Presiune Umiditate
    00:00 +26°C° 0.2 mm 4 m/s 760 mmHg 87%
    01:00 +25°C° 0.2 mm 4 m/s 760 mmHg 88%
    02:00 +25°C° 0.2 mm 3 m/s 760 mmHg 89%
    03:00 +25°C° 0.3 mm 3 m/s 760 mmHg 90%
    04:00 +25°C° 0.3 mm 4 m/s 760 mmHg 90%
    05:00 +25°C° 0.3 mm 4 m/s 760 mmHg 91%
    06:00 +26°C° 0.1 mm 4 m/s 760 mmHg 88%
    07:00 +27°C° 0.1 mm 4 m/s 761 mmHg 85%
    08:00 +27°C° 0.1 mm 4 m/s 761 mmHg 82%
    09:00 +29°C° 0.1 mm 4 m/s 761 mmHg 75%
    10:00 +30°C° 0.1 mm 4 m/s 761 mmHg 68%
    11:00 +32°C° 0.1 mm 4 m/s 761 mmHg 61%
    12:00 +32°C° 0.1 mm 4 m/s 761 mmHg 61%
    13:00 +32°C° 0.1 mm 4 m/s 760 mmHg 61%
    14:00 +32°C° 0.1 mm 4 m/s 759 mmHg 61%
    15:00 +30°C° 0.1 mm 4 m/s 759 mmHg 64%
    16:00 +29°C° 0.1 mm 4 m/s 759 mmHg 67%
    17:00 +29°C° 0.1 mm 4 m/s 759 mmHg 71%
    18:00 +28°C° 0 mm 3 m/s 759 mmHg 75%
    19:00 +27°C° 0 mm 3 m/s 760 mmHg 79%
    20:00 +26°C° 0 mm 3 m/s 760 mmHg 83%
    21:00 +26°C° 0 mm 3 m/s 760 mmHg 83%
    22:00 +26°C° 0 mm 3 m/s 760 mmHg 84%
    23:00 +26°C° 0 mm 3 m/s 761 mmHg 85%

    25 Ianuarie, Vineri

    Timp Temperatura Precipitaţii Vânt Presiune Umiditate
    00:00 +25°C° 0.1 mm 3 m/s 760 mmHg 86%
    01:00 +25°C° 0.1 mm 3 m/s 760 mmHg 88%
    02:00 +25°C° 0.1 mm 2 m/s 760 mmHg 90%
    03:00 +25°C° 0.2 mm 2 m/s 760 mmHg 91%
    04:00 +25°C° 0.2 mm 2 m/s 760 mmHg 91%
    05:00 +25°C° 0.2 mm 2 m/s 760 mmHg 92%
    06:00 +25°C° 0.2 mm 3 m/s 760 mmHg 89%
    07:00 +26°C° 0.2 mm 3 m/s 761 mmHg 87%
    08:00 +27°C° 0.2 mm 3 m/s 761 mmHg 85%
    09:00 +28°C° 0.1 mm 3 m/s 761 mmHg 78%
    10:00 +29°C° 0.1 mm 3 m/s 761 mmHg 71%
    11:00 +32°C° 0.1 mm 4 m/s 761 mmHg 63%
    12:00 +32°C° 0 mm 4 m/s 761 mmHg 62%
    13:00 +32°C° 0 mm 4 m/s 760 mmHg 61%
    14:00 +32°C° 0 mm 4 m/s 759 mmHg 59%
    15:00 +30°C° 0 mm 4 m/s 759 mmHg 64%
    16:00 +29°C° 0 mm 4 m/s 759 mmHg 68%
    17:00 +28°C° 0 mm 4 m/s 758 mmHg 73%
    18:00 +28°C° 0.2 mm 4 m/s 759 mmHg 78%
    19:00 +27°C° 0.2 mm 3 m/s 759 mmHg 84%
    20:00 +26°C° 0.2 mm 3 m/s 759 mmHg 89%
    21:00 +25°C° 0.3 mm 3 m/s 760 mmHg 90%
    22:00 +25°C° 0.3 mm 3 m/s 760 mmHg 91%
    23:00 +25°C° 0.3 mm 3 m/s 760 mmHg 93%
    Arată mai mult